Погода в Ямашах

Россия / Республика Татарстан     55°06′40″N   51°36′40″E
темп.,
°C
ветер,
м/с
пор.,
м/с
влажн.,
%
обл.,
%
осадки,
мм/ч
давл.,
гПа
погр.,
м
28 февраля, вс
вс2800:00−12ссз489593 0.1 1000203
03:00−12ссз489595 0.2 1002254
06:00−13с4994100 0.2 1003300
09:00−13с589397 0.3 1005392
12:00−12с4792100 0.1 1007425
15:00−12с5791100 0.1 1009526
18:00−13ссз3796100 0.1 1011194
21:00−16ссз3397100 0.1 101368
1 марта, пн
пн100:00−19ссз239853 0.0 101527
03:00−21ссз339831 0.0 101734
06:00−23ссз23989 0.0 101927
09:00−21ссз24965 0.0 1021174
12:00−17сз349283 0.0 1021286
15:00−17зсз349485 0.0 1022231
18:00−21зюз229851 0.0 102020
21:00−21ююз349626 0.0 102039
2 марта, вт
вт200:00−19ююз489762 0.0 1017173
03:00−16ююз6129681 0.0 1014280
06:00−14ююз71495100 0.2 1009363
09:00−11ююз71394100 1.3 1006457
12:00−7ююз81494100 1.3 1003549
15:00−3ююз81395100 1.9 1000622
18:00−1зюз5998100 1.4 999405
21:00−2з489798 2.1 998241
3 марта, ср
ср300:00−3з489783 0.2 998245
03:00−4зсз369690 0.4 999190
06:00−7зсз239789 0.1 100037
09:00−5зсз479689 0.3 1001279
12:00−4зсз579496 0.3 1002388
15:00−4зсз599499 0.5 1003616
18:00−8зсз379493 0.1 1003148
21:00−6ссз6129582 0.4 1006553
4 марта, чт
чт400:00−9сз5119294 0.2 1007277
03:00−14зсз339869 0.2 100943
06:00−14з369897 0.1 101097
09:00−11юз479699 0.1 1009247
12:00−8ююз71192100 0.0 1006419
15:00−4юз101793100 0.3 1002817
18:00−2зюз101693100 1.6 10001017
21:00−1зюз91692100 2.0 999975